Year,Month,Day,Hour,Minute,Value (Times are PST for windgust in km/hr)
2016,02,28,00,00,8.10
2016,02,28,00,01,8.10
2016,02,28,00,02,9.60
2016,02,28,00,03,19.30
2016,02,28,00,04,16.10
2016,02,28,00,05,8.10
2016,02,28,00,06,6.40
2016,02,28,00,07,4.80
2016,02,28,00,08,11.30
2016,02,28,00,09,11.30
2016,02,28,00,10,11.30
2016,02,28,00,11,8.10
2016,02,28,00,12,4.80
2016,02,28,00,13,4.80
2016,02,28,00,14,14.50
2016,02,28,00,15,8.10
2016,02,28,00,16,9.60
2016,02,28,00,17,6.40
2016,02,28,00,18,8.10
2016,02,28,00,19,4.80
2016,02,28,00,20,8.10
2016,02,28,00,21,8.10
2016,02,28,00,22,8.10
2016,02,28,00,23,6.40
2016,02,28,00,24,8.10
2016,02,28,00,25,9.60
2016,02,28,00,26,11.30
2016,02,28,00,27,9.60
2016,02,28,00,28,11.30
2016,02,28,00,29,16.10
2016,02,28,00,30,16.10
2016,02,28,00,31,6.40
2016,02,28,00,32,8.10
2016,02,28,00,33,16.10
2016,02,28,00,34,11.30
2016,02,28,00,35,14.50
2016,02,28,00,36,11.30
2016,02,28,00,37,9.60
2016,02,28,00,38,8.10
2016,02,28,00,39,9.60
2016,02,28,00,40,16.10
2016,02,28,00,41,14.50
2016,02,28,00,42,12.90
2016,02,28,00,43,11.30
2016,02,28,00,44,6.40
2016,02,28,00,45,14.50
2016,02,28,00,46,11.30
2016,02,28,00,47,6.40
2016,02,28,00,48,6.40
2016,02,28,00,49,11.30
2016,02,28,00,50,17.70
2016,02,28,00,51,12.90
2016,02,28,00,52,14.50
2016,02,28,00,53,9.60
2016,02,28,00,54,9.60
2016,02,28,00,55,6.40
2016,02,28,00,56,8.10
2016,02,28,00,57,11.30
2016,02,28,00,58,9.60
2016,02,28,00,59,8.10
2016,02,28,01,00,9.60
2016,02,28,01,01,14.50
2016,02,28,01,02,11.30
2016,02,28,01,03,9.60
2016,02,28,01,04,11.30
2016,02,28,01,05,9.60
2016,02,28,01,06,4.80
2016,02,28,01,07,8.10
2016,02,28,01,08,9.60
2016,02,28,01,09,11.30
2016,02,28,01,10,11.30
2016,02,28,01,11,11.30
2016,02,28,01,12,8.10
2016,02,28,01,13,16.10
2016,02,28,01,14,11.30
2016,02,28,01,15,11.30
2016,02,28,01,16,6.40
2016,02,28,01,17,11.30
2016,02,28,01,18,12.90
2016,02,28,01,19,14.50
2016,02,28,01,20,19.30
2016,02,28,01,21,20.90
2016,02,28,01,22,9.60
2016,02,28,01,23,17.70
2016,02,28,01,24,11.30
2016,02,28,01,25,9.60
2016,02,28,01,26,14.50
2016,02,28,01,27,14.50
2016,02,28,01,28,17.70
2016,02,28,01,29,17.70
2016,02,28,01,30,17.70
2016,02,28,01,31,14.50
2016,02,28,01,32,11.30
2016,02,28,01,33,8.10
2016,02,28,01,34,9.60
2016,02,28,01,35,16.10
2016,02,28,01,36,11.30
2016,02,28,01,37,14.50
2016,02,28,01,38,8.10
2016,02,28,01,39,12.90
2016,02,28,01,40,9.60
2016,02,28,01,41,9.60
2016,02,28,01,42,8.10
2016,02,28,01,43,8.10
2016,02,28,01,44,8.10
2016,02,28,01,45,17.70
2016,02,28,01,46,11.30
2016,02,28,01,47,8.10
2016,02,28,01,48,9.60
2016,02,28,01,49,9.60
2016,02,28,01,50,3.20
2016,02,28,01,51,4.80
2016,02,28,01,52,14.50
2016,02,28,01,53,9.60
2016,02,28,01,54,17.70
2016,02,28,01,55,11.30
2016,02,28,01,56,12.90
2016,02,28,01,57,14.50
2016,02,28,01,58,11.30
2016,02,28,01,59,9.60
2016,02,28,02,00,8.10
2016,02,28,02,01,12.90
2016,02,28,02,02,8.10
2016,02,28,02,03,9.60
2016,02,28,02,04,9.60
2016,02,28,02,05,6.40
2016,02,28,02,06,9.60
2016,02,28,02,07,8.10
2016,02,28,02,08,12.90
2016,02,28,02,09,17.70
2016,02,28,02,10,11.30
2016,02,28,02,11,8.10
2016,02,28,02,12,11.30
2016,02,28,02,13,6.40
2016,02,28,02,14,9.60
2016,02,28,02,15,8.10
2016,02,28,02,16,8.10
2016,02,28,02,17,8.10
2016,02,28,02,18,16.10
2016,02,28,02,19,14.50
2016,02,28,02,20,16.10
2016,02,28,02,21,11.30
2016,02,28,02,22,16.10
2016,02,28,02,23,9.60
2016,02,28,02,24,16.10
2016,02,28,02,25,12.90
2016,02,28,02,26,16.10
2016,02,28,02,27,19.30
2016,02,28,02,28,14.50
2016,02,28,02,29,20.90
2016,02,28,02,30,16.10
2016,02,28,02,31,14.50
2016,02,28,02,32,16.10
2016,02,28,02,33,20.90
2016,02,28,02,34,19.30
2016,02,28,02,35,14.50
2016,02,28,02,36,6.40
2016,02,28,02,37,8.10
2016,02,28,02,38,14.50
2016,02,28,02,39,6.40
2016,02,28,02,40,19.30
2016,02,28,02,41,14.50
2016,02,28,02,42,16.10
2016,02,28,02,43,17.70
2016,02,28,02,44,9.60
2016,02,28,02,45,11.30
2016,02,28,02,46,6.40
2016,02,28,02,47,8.10
2016,02,28,02,48,9.60
2016,02,28,02,49,14.50
2016,02,28,02,50,9.60
2016,02,28,02,51,17.70
2016,02,28,02,52,14.50
2016,02,28,02,53,14.50
2016,02,28,02,54,14.50
2016,02,28,02,55,12.90
2016,02,28,02,56,14.50
2016,02,28,02,57,9.60
2016,02,28,02,58,14.50
2016,02,28,02,59,8.10
2016,02,28,03,00,11.30
2016,02,28,03,01,6.40
2016,02,28,03,02,16.10
2016,02,28,03,03,8.10
2016,02,28,03,04,9.60
2016,02,28,03,05,16.10
2016,02,28,03,06,9.60
2016,02,28,03,07,12.90
2016,02,28,03,08,9.60
2016,02,28,03,09,11.30
2016,02,28,03,10,12.90
2016,02,28,03,11,6.40
2016,02,28,03,12,9.60
2016,02,28,03,13,14.50
2016,02,28,03,14,4.80
2016,02,28,03,15,11.30
2016,02,28,03,16,11.30
2016,02,28,03,17,9.60
2016,02,28,03,18,9.60
2016,02,28,03,19,6.40
2016,02,28,03,20,11.30
2016,02,28,03,21,8.10
2016,02,28,03,22,14.50
2016,02,28,03,23,9.60
2016,02,28,03,24,16.10
2016,02,28,03,25,14.50
2016,02,28,03,26,16.10
2016,02,28,03,27,9.60
2016,02,28,03,28,9.60
2016,02,28,03,29,14.50
2016,02,28,03,30,8.10
2016,02,28,03,31,11.30
2016,02,28,03,32,16.10
2016,02,28,03,33,11.30
2016,02,28,03,34,11.30
2016,02,28,03,35,9.60
2016,02,28,03,36,9.60
2016,02,28,03,37,11.30
2016,02,28,03,38,14.50
2016,02,28,03,39,11.30
2016,02,28,03,40,9.60
2016,02,28,03,41,14.50
2016,02,28,03,42,14.50
2016,02,28,03,43,16.10
2016,02,28,03,44,9.60
2016,02,28,03,45,14.50
2016,02,28,03,46,12.90
2016,02,28,03,47,19.30
2016,02,28,03,48,11.30
2016,02,28,03,49,20.90
2016,02,28,03,50,16.10
2016,02,28,03,51,11.30
2016,02,28,03,52,11.30
2016,02,28,03,53,9.60
2016,02,28,03,54,16.10
2016,02,28,03,55,11.30
2016,02,28,03,56,14.50
2016,02,28,03,57,11.30
2016,02,28,03,58,9.60
2016,02,28,03,59,9.60
2016,02,28,04,00,17.70
2016,02,28,04,01,19.30
2016,02,28,04,02,16.10
2016,02,28,04,03,17.70
2016,02,28,04,04,16.10
2016,02,28,04,05,9.60
2016,02,28,04,06,19.30
2016,02,28,04,07,16.10
2016,02,28,04,08,16.10
2016,02,28,04,09,12.90
2016,02,28,04,10,11.30
2016,02,28,04,11,14.50
2016,02,28,04,12,14.50
2016,02,28,04,13,11.30
2016,02,28,04,14,14.50
2016,02,28,04,15,14.50
2016,02,28,04,16,12.90
2016,02,28,04,17,14.50
2016,02,28,04,18,11.30
2016,02,28,04,19,16.10
2016,02,28,04,20,20.90
2016,02,28,04,21,19.30
2016,02,28,04,22,9.60
2016,02,28,04,23,20.90
2016,02,28,04,24,16.10
2016,02,28,04,25,19.30
2016,02,28,04,26,20.90
2016,02,28,04,27,11.30
2016,02,28,04,28,16.10
2016,02,28,04,29,20.90
2016,02,28,04,30,16.10
2016,02,28,04,31,12.90
2016,02,28,04,32,20.90
2016,02,28,04,33,17.70
2016,02,28,04,34,8.10
2016,02,28,04,35,14.50
2016,02,28,04,36,16.10
2016,02,28,04,37,11.30
2016,02,28,04,38,8.10
2016,02,28,04,39,9.60
2016,02,28,04,40,12.90
2016,02,28,04,41,14.50
2016,02,28,04,42,17.70
2016,02,28,04,43,14.50
2016,02,28,04,44,9.60
2016,02,28,04,45,9.60
2016,02,28,04,46,12.90
2016,02,28,04,47,14.50
2016,02,28,04,48,17.70
2016,02,28,04,49,12.90
2016,02,28,04,50,14.50
2016,02,28,04,51,6.40
2016,02,28,04,52,6.40
2016,02,28,04,53,8.10
2016,02,28,04,54,11.30
2016,02,28,04,55,14.50
2016,02,28,04,56,8.10
2016,02,28,04,57,9.60
2016,02,28,04,58,6.40
2016,02,28,04,59,9.60
2016,02,28,05,00,8.10
2016,02,28,05,01,8.10
2016,02,28,05,02,14.50
2016,02,28,05,03,12.90
2016,02,28,05,04,9.60
2016,02,28,05,05,14.50
2016,02,28,05,06,14.50
2016,02,28,05,07,6.40
2016,02,28,05,08,9.60
2016,02,28,05,09,11.30
2016,02,28,05,10,8.10
2016,02,28,05,11,17.70
2016,02,28,05,12,9.60
2016,02,28,05,13,9.60
2016,02,28,05,14,9.60
2016,02,28,05,15,14.50
2016,02,28,05,16,12.90
2016,02,28,05,17,9.60
2016,02,28,05,18,9.60
2016,02,28,05,19,17.70
2016,02,28,05,20,16.10
2016,02,28,05,21,11.30
2016,02,28,05,22,12.90
2016,02,28,05,23,6.40
2016,02,28,05,24,6.40
2016,02,28,05,25,19.30
2016,02,28,05,26,14.50
2016,02,28,05,27,11.30
2016,02,28,05,28,9.60
2016,02,28,05,29,17.70
2016,02,28,05,30,12.90
2016,02,28,05,31,8.10
2016,02,28,05,32,8.10
2016,02,28,05,33,11.30
2016,02,28,05,34,8.10
2016,02,28,05,35,8.10
2016,02,28,05,36,11.30
2016,02,28,05,37,4.80
2016,02,28,05,38,12.90
2016,02,28,05,39,6.40
2016,02,28,05,40,6.40
2016,02,28,05,41,14.50
2016,02,28,05,42,6.40
2016,02,28,05,43,4.80
2016,02,28,05,44,6.40
2016,02,28,05,45,6.40
2016,02,28,05,46,8.10
2016,02,28,05,47,9.60
2016,02,28,05,48,9.60
2016,02,28,05,49,8.10
2016,02,28,05,50,14.50
2016,02,28,05,51,9.60
2016,02,28,05,52,9.60
2016,02,28,05,53,9.60
2016,02,28,05,54,11.30
2016,02,28,05,55,14.50
2016,02,28,05,56,12.90
2016,02,28,05,57,22.50
2016,02,28,05,58,9.60
2016,02,28,05,59,11.30
2016,02,28,06,00,27.40
2016,02,28,06,01,22.50
2016,02,28,06,02,19.30
2016,02,28,06,03,19.30
2016,02,28,06,04,20.90
2016,02,28,06,05,9.60
2016,02,28,06,06,9.60
2016,02,28,06,07,12.90
2016,02,28,06,08,17.70
2016,02,28,06,09,17.70
2016,02,28,06,10,9.60
2016,02,28,06,11,16.10
2016,02,28,06,12,9.60
2016,02,28,06,13,17.70
2016,02,28,06,14,17.70
2016,02,28,06,15,11.30
2016,02,28,06,16,19.30
2016,02,28,06,17,24.20
2016,02,28,06,18,22.50
2016,02,28,06,19,19.30
2016,02,28,06,20,30.60
2016,02,28,06,21,19.30
2016,02,28,06,22,22.50
2016,02,28,06,23,24.20
2016,02,28,06,24,19.30
2016,02,28,06,25,17.70
2016,02,28,06,26,16.10
2016,02,28,06,27,22.50
2016,02,28,06,28,24.20
2016,02,28,06,29,19.30
2016,02,28,06,30,22.50
2016,02,28,06,31,20.90
2016,02,28,06,32,16.10
2016,02,28,06,33,17.70
2016,02,28,06,34,12.90
2016,02,28,06,35,16.10
2016,02,28,06,36,11.30
2016,02,28,06,37,19.30
2016,02,28,06,38,17.70
2016,02,28,06,39,17.70
2016,02,28,06,40,20.90
2016,02,28,06,41,17.70
2016,02,28,06,42,19.30
2016,02,28,06,43,14.50
2016,02,28,06,44,8.10
2016,02,28,06,45,17.70
2016,02,28,06,46,17.70
2016,02,28,06,47,19.30
2016,02,28,06,48,20.90
2016,02,28,06,49,30.60
2016,02,28,06,50,29.00
2016,02,28,06,51,35.40
2016,02,28,06,52,27.40
2016,02,28,06,53,27.40
2016,02,28,06,54,20.90
2016,02,28,06,55,22.50
2016,02,28,06,56,24.20
2016,02,28,06,57,32.20
2016,02,28,06,58,22.50
2016,02,28,06,59,11.30
2016,02,28,07,00,35.40
2016,02,28,07,01,30.60
2016,02,28,07,02,27.40
2016,02,28,07,03,17.70
2016,02,28,07,04,25.70
2016,02,28,07,05,27.40
2016,02,28,07,06,24.20
2016,02,28,07,07,19.30
2016,02,28,07,08,22.50
2016,02,28,07,09,14.50
2016,02,28,07,10,27.40
2016,02,28,07,11,24.20
2016,02,28,07,12,27.40
2016,02,28,07,13,22.50
2016,02,28,07,14,32.20
2016,02,28,07,15,22.50
2016,02,28,07,16,25.70
2016,02,28,07,17,37.00
2016,02,28,07,18,30.60
2016,02,28,07,19,24.20
2016,02,28,07,20,27.40
2016,02,28,07,21,19.30
2016,02,28,07,22,24.20
2016,02,28,07,23,24.20
2016,02,28,07,24,24.20
2016,02,28,07,25,35.40
2016,02,28,07,26,22.50
2016,02,28,07,27,17.70
2016,02,28,07,28,19.30
2016,02,28,07,29,19.30
2016,02,28,07,30,17.70
2016,02,28,07,31,17.70
2016,02,28,07,32,14.50
2016,02,28,07,33,27.40
2016,02,28,07,34,19.30
2016,02,28,07,35,20.90
2016,02,28,07,36,25.70
2016,02,28,07,37,25.70
2016,02,28,07,38,19.30
2016,02,28,07,39,27.40
2016,02,28,07,40,27.40
2016,02,28,07,41,17.70
2016,02,28,07,42,22.50
2016,02,28,07,43,27.40
2016,02,28,07,44,27.40
2016,02,28,07,45,20.90
2016,02,28,07,46,22.50
2016,02,28,07,47,17.70
2016,02,28,07,48,17.70
2016,02,28,07,49,11.30
2016,02,28,07,50,11.30
2016,02,28,07,51,19.30
2016,02,28,07,52,19.30
2016,02,28,07,53,19.30
2016,02,28,07,54,17.70
2016,02,28,07,55,17.70
2016,02,28,07,56,16.10
2016,02,28,07,57,17.70
2016,02,28,07,58,16.10
2016,02,28,07,59,16.10
2016,02,28,08,00,16.10
2016,02,28,08,01,11.30
2016,02,28,08,02,16.10
2016,02,28,08,03,24.20
2016,02,28,08,04,19.30
2016,02,28,08,05,19.30
2016,02,28,08,06,19.30
2016,02,28,08,07,14.50
2016,02,28,08,08,17.70
2016,02,28,08,09,32.20
2016,02,28,08,10,35.40
2016,02,28,08,11,20.90
2016,02,28,08,12,16.10
2016,02,28,08,13,20.90
2016,02,28,08,14,22.50
2016,02,28,08,15,24.20
2016,02,28,08,16,27.40
2016,02,28,08,17,20.90
2016,02,28,08,18,24.20
2016,02,28,08,19,35.40
2016,02,28,08,20,29.00
2016,02,28,08,21,20.90
2016,02,28,08,22,22.50
2016,02,28,08,23,32.20
2016,02,28,08,24,25.70
2016,02,28,08,25,38.60
2016,02,28,08,26,29.00
2016,02,28,08,27,35.40
2016,02,28,08,28,27.40
2016,02,28,08,29,27.40
2016,02,28,08,30,30.60
2016,02,28,08,31,24.20
2016,02,28,08,32,17.70
2016,02,28,08,33,33.80
2016,02,28,08,34,22.50
2016,02,28,08,35,25.70
2016,02,28,08,36,22.50
2016,02,28,08,37,19.30
2016,02,28,08,38,22.50
2016,02,28,08,39,16.10
2016,02,28,08,40,29.00
2016,02,28,08,41,30.60
2016,02,28,08,42,17.70
2016,02,28,08,43,19.30
2016,02,28,08,44,22.50
2016,02,28,08,45,25.70
2016,02,28,08,46,20.90
2016,02,28,08,47,24.20
2016,02,28,08,48,29.00
2016,02,28,08,49,30.60
2016,02,28,08,50,27.40
2016,02,28,08,51,27.40
2016,02,28,08,52,22.50
2016,02,28,08,53,22.50
2016,02,28,08,54,30.60
2016,02,28,08,55,33.80
2016,02,28,08,56,25.70
2016,02,28,08,57,17.70
2016,02,28,08,58,24.20
2016,02,28,08,59,25.70
2016,02,28,09,00,17.70
2016,02,28,09,01,24.20
2016,02,28,09,02,14.50
2016,02,28,09,03,17.70
2016,02,28,09,04,16.10
2016,02,28,09,05,11.30
2016,02,28,09,06,17.70
2016,02,28,09,07,16.10
2016,02,28,09,08,16.10
2016,02,28,09,09,17.70
2016,02,28,09,10,17.70
2016,02,28,09,11,11.30
2016,02,28,09,12,25.70
2016,02,28,09,13,29.00
2016,02,28,09,14,33.80
2016,02,28,09,15,16.10
2016,02,28,09,16,17.70
2016,02,28,09,17,22.50
2016,02,28,09,18,17.70
2016,02,28,09,19,17.70
2016,02,28,09,20,17.70
2016,02,28,09,21,24.20
2016,02,28,09,22,27.40
2016,02,28,09,23,29.00
2016,02,28,09,24,22.50
2016,02,28,09,25,16.10
2016,02,28,09,26,16.10
2016,02,28,09,27,16.10
2016,02,28,09,28,22.50
2016,02,28,09,29,24.20
2016,02,28,09,30,22.50
2016,02,28,09,31,30.60
2016,02,28,09,32,25.70
2016,02,28,09,33,25.70
2016,02,28,09,34,19.30
2016,02,28,09,35,30.60
2016,02,28,09,36,29.00
2016,02,28,09,37,27.40
2016,02,28,09,38,29.00
2016,02,28,09,39,29.00
2016,02,28,09,40,25.70
2016,02,28,09,41,25.70
2016,02,28,09,42,22.50
2016,02,28,09,43,25.70
2016,02,28,09,44,20.90
2016,02,28,09,45,22.50
2016,02,28,09,46,27.40
2016,02,28,09,47,24.20
2016,02,28,09,48,22.50
2016,02,28,09,49,16.10
2016,02,28,09,50,17.70
2016,02,28,09,51,32.20
2016,02,28,09,52,25.70
2016,02,28,09,53,14.50
2016,02,28,09,54,16.10
2016,02,28,09,55,22.50
2016,02,28,09,56,19.30
2016,02,28,09,57,20.90
2016,02,28,09,58,30.60
2016,02,28,09,59,19.30
2016,02,28,10,00,19.30
2016,02,28,10,01,22.50
2016,02,28,10,02,17.70
2016,02,28,10,03,20.90
2016,02,28,10,04,19.30
2016,02,28,10,05,24.20
2016,02,28,10,06,22.50
2016,02,28,10,07,17.70
2016,02,28,10,08,24.20
2016,02,28,10,09,19.30
2016,02,28,10,10,24.20
2016,02,28,10,11,22.50
2016,02,28,10,12,17.70
2016,02,28,10,13,16.10
2016,02,28,10,14,16.10
2016,02,28,10,15,8.10
2016,02,28,10,16,14.50
2016,02,28,10,17,19.30
2016,02,28,10,18,30.60
2016,02,28,10,19,30.60
2016,02,28,10,20,19.30
2016,02,28,10,21,14.50
2016,02,28,10,22,19.30
2016,02,28,10,23,20.90
2016,02,28,10,24,24.20
2016,02,28,10,25,16.10
2016,02,28,10,26,20.90
2016,02,28,10,27,14.50
2016,02,28,10,28,17.70
2016,02,28,10,29,11.30
2016,02,28,10,30,16.10
2016,02,28,10,31,14.50
2016,02,28,10,32,19.30
2016,02,28,10,33,11.30
2016,02,28,10,34,16.10
2016,02,28,10,35,17.70
2016,02,28,10,36,16.10
2016,02,28,10,37,11.30
2016,02,28,10,38,9.60
2016,02,28,10,39,11.30
2016,02,28,10,40,17.70
2016,02,28,10,41,11.30
2016,02,28,10,42,11.30
2016,02,28,10,43,11.30
2016,02,28,10,44,16.10
2016,02,28,10,45,16.10
2016,02,28,10,46,8.10
2016,02,28,10,47,14.50
2016,02,28,10,48,11.30
2016,02,28,10,49,11.30
2016,02,28,10,50,17.70
2016,02,28,10,51,14.50
2016,02,28,10,52,16.10
2016,02,28,10,53,17.70
2016,02,28,10,54,19.30
2016,02,28,10,55,19.30
2016,02,28,10,56,17.70
2016,02,28,10,57,19.30
2016,02,28,10,58,17.70
2016,02,28,10,59,16.10
2016,02,28,11,00,9.60
2016,02,28,11,01,11.30
2016,02,28,11,02,9.60
2016,02,28,11,03,11.30
2016,02,28,11,04,17.70
2016,02,28,11,05,14.50
2016,02,28,11,06,11.30
2016,02,28,11,07,17.70
2016,02,28,11,08,17.70
2016,02,28,11,09,16.10
2016,02,28,11,10,8.10
2016,02,28,11,11,14.50
2016,02,28,11,12,6.40
2016,02,28,11,13,6.40
2016,02,28,11,14,11.30
2016,02,28,11,15,14.50
2016,02,28,11,16,11.30
2016,02,28,11,17,9.60
2016,02,28,11,18,9.60
2016,02,28,11,19,11.30
2016,02,28,11,20,8.10
2016,02,28,11,21,11.30
2016,02,28,11,22,14.50
2016,02,28,11,23,16.10
2016,02,28,11,24,20.90
2016,02,28,11,25,22.50
2016,02,28,11,26,19.30
2016,02,28,11,27,19.30
2016,02,28,11,28,17.70
2016,02,28,11,29,17.70
2016,02,28,11,30,17.70
2016,02,28,11,31,14.50
2016,02,28,11,32,20.90
2016,02,28,11,33,9.60
2016,02,28,11,34,14.50
2016,02,28,11,35,16.10
2016,02,28,11,36,14.50
2016,02,28,11,37,14.50
2016,02,28,11,38,9.60
2016,02,28,11,39,14.50
2016,02,28,11,40,11.30
2016,02,28,11,41,17.70
2016,02,28,11,42,19.30
2016,02,28,11,43,16.10
2016,02,28,11,44,9.60
2016,02,28,11,45,6.40
2016,02,28,11,46,20.90
2016,02,28,11,47,11.30
2016,02,28,11,48,9.60
2016,02,28,11,49,17.70
2016,02,28,11,50,11.30
2016,02,28,11,51,20.90
2016,02,28,11,52,19.30
2016,02,28,11,53,14.50
2016,02,28,11,54,6.40
2016,02,28,11,55,6.40
2016,02,28,11,56,16.10
2016,02,28,11,57,22.50
2016,02,28,11,58,9.60
2016,02,28,11,59,9.60
2016,02,28,12,00,4.80
2016,02,28,12,01,8.10
2016,02,28,12,02,14.50
2016,02,28,12,03,11.30
2016,02,28,12,04,14.50
2016,02,28,12,05,29.00
2016,02,28,12,06,22.50
2016,02,28,12,07,19.30
2016,02,28,12,08,32.20
2016,02,28,12,09,40.20
2016,02,28,12,10,16.10
2016,02,28,12,11,35.40
2016,02,28,12,12,35.40
2016,02,28,12,13,43.50
2016,02,28,12,14,48.30
2016,02,28,12,15,35.40
2016,02,28,12,16,46.70
2016,02,28,12,17,57.90
2016,02,28,12,18,37.00
2016,02,28,12,19,30.60
2016,02,28,12,20,30.60
2016,02,28,12,21,30.60
2016,02,28,12,22,40.20
2016,02,28,12,23,37.00
2016,02,28,12,24,30.60
2016,02,28,12,25,25.70
2016,02,28,12,26,43.50
2016,02,28,12,27,41.80
2016,02,28,12,28,19.30
2016,02,28,12,29,20.90
2016,02,28,12,30,20.90
2016,02,28,12,31,16.10
2016,02,28,12,32,11.30
2016,02,28,12,33,8.10
2016,02,28,12,34,9.60
2016,02,28,12,35,22.50
2016,02,28,12,36,17.70
2016,02,28,12,37,20.90
2016,02,28,12,38,19.30
2016,02,28,12,39,19.30
2016,02,28,12,40,20.90
2016,02,28,12,41,16.10
2016,02,28,12,42,16.10
2016,02,28,12,43,19.30
2016,02,28,12,44,19.30
2016,02,28,12,45,8.10
2016,02,28,12,46,14.50
2016,02,28,12,47,8.10
2016,02,28,12,48,11.30
2016,02,28,12,49,14.50
2016,02,28,12,50,17.70
2016,02,28,12,51,11.30
2016,02,28,12,52,11.30
2016,02,28,12,53,16.10
2016,02,28,12,54,11.30
2016,02,28,12,55,11.30
2016,02,28,12,56,9.60
2016,02,28,12,57,4.80
2016,02,28,12,58,6.40
2016,02,28,12,59,8.10
2016,02,28,13,00,4.80
2016,02,28,13,01,8.10
2016,02,28,13,02,8.10
2016,02,28,13,03,4.80
2016,02,28,13,04,6.40
2016,02,28,13,05,4.80
2016,02,28,13,06,3.20
2016,02,28,13,07,6.40
2016,02,28,13,08,4.80
2016,02,28,13,09,16.10
2016,02,28,13,10,16.10
2016,02,28,13,11,16.10
2016,02,28,13,12,32.20
2016,02,28,13,13,29.00
2016,02,28,13,14,17.70
2016,02,28,13,15,24.20
2016,02,28,13,16,19.30
2016,02,28,13,17,25.70
2016,02,28,13,18,22.50
2016,02,28,13,19,27.40
2016,02,28,13,20,24.20
2016,02,28,13,21,14.50
2016,02,28,13,22,12.90
2016,02,28,13,23,17.70
2016,02,28,13,24,14.50
2016,02,28,13,25,22.50
2016,02,28,13,26,24.20
2016,02,28,13,27,19.30
2016,02,28,13,28,17.70
2016,02,28,13,29,16.10
2016,02,28,13,30,11.30
2016,02,28,13,31,4.80
2016,02,28,13,32,17.70
2016,02,28,13,33,24.20
2016,02,28,13,34,9.60
2016,02,28,13,35,9.60
2016,02,28,13,36,6.40
2016,02,28,13,37,12.90
2016,02,28,13,38,6.40
2016,02,28,13,39,8.10
2016,02,28,13,40,8.10
2016,02,28,13,41,8.10
2016,02,28,13,42,8.10
2016,02,28,13,43,11.30
2016,02,28,13,44,17.70
2016,02,28,13,45,14.50
2016,02,28,13,46,9.60
2016,02,28,13,47,17.70
2016,02,28,13,48,12.90
2016,02,28,13,49,16.10
2016,02,28,13,50,11.30
2016,02,28,13,51,4.80
2016,02,28,13,52,6.40
2016,02,28,13,53,11.30
2016,02,28,13,54,20.90
2016,02,28,13,55,8.10
2016,02,28,13,56,14.50
2016,02,28,13,57,19.30
2016,02,28,13,58,14.50
2016,02,28,13,59,9.60
2016,02,28,14,00,11.30
2016,02,28,14,01,9.60
2016,02,28,14,02,12.90
2016,02,28,14,03,8.10
2016,02,28,14,04,8.10
2016,02,28,14,05,6.40
2016,02,28,14,06,6.40
2016,02,28,14,07,6.40
2016,02,28,14,08,11.30
2016,02,28,14,09,6.40
2016,02,28,14,10,4.80
2016,02,28,14,11,6.40
2016,02,28,14,12,8.10
2016,02,28,14,13,8.10
2016,02,28,14,14,16.10
2016,02,28,14,15,27.40
2016,02,28,14,16,11.30
2016,02,28,14,17,9.60
2016,02,28,14,18,8.10
2016,02,28,14,19,14.50
2016,02,28,14,20,17.70
2016,02,28,14,21,11.30
2016,02,28,14,22,12.90
2016,02,28,14,23,6.40
2016,02,28,14,24,9.60
2016,02,28,14,25,9.60
2016,02,28,14,26,9.60
2016,02,28,14,27,16.10
2016,02,28,14,28,16.10
2016,02,28,14,29,20.90
2016,02,28,14,30,24.20
2016,02,28,14,31,11.30
2016,02,28,14,32,11.30
2016,02,28,14,33,8.10
2016,02,28,14,34,9.60
2016,02,28,14,35,12.90
2016,02,28,14,36,11.30
2016,02,28,14,37,11.30
2016,02,28,14,38,11.30
2016,02,28,14,39,11.30
2016,02,28,14,40,17.70
2016,02,28,14,41,16.10
2016,02,28,14,42,14.50
2016,02,28,14,43,9.60
2016,02,28,14,44,9.60
2016,02,28,14,45,11.30
2016,02,28,14,46,8.10
2016,02,28,14,47,6.40
2016,02,28,14,48,6.40
2016,02,28,14,49,8.10
2016,02,28,14,50,6.40
2016,02,28,14,51,4.80
2016,02,28,14,52,6.40
2016,02,28,14,53,9.60
2016,02,28,14,54,8.10
2016,02,28,14,55,8.10
2016,02,28,14,56,11.30
2016,02,28,14,57,8.10
2016,02,28,14,58,4.80
2016,02,28,14,59,4.80
2016,02,28,15,00,6.40
2016,02,28,15,01,6.40
2016,02,28,15,02,4.80
2016,02,28,15,03,4.80
2016,02,28,15,04,4.80
2016,02,28,15,05,4.80
2016,02,28,15,06,3.20
2016,02,28,15,07,4.80
2016,02,28,15,08,4.80
2016,02,28,15,09,4.80
2016,02,28,15,10,4.80
2016,02,28,15,11,3.20
2016,02,28,15,12,3.20
2016,02,28,15,13,1.60
2016,02,28,15,14,1.60
2016,02,28,15,15,1.60
2016,02,28,15,16,4.80
2016,02,28,15,17,4.80
2016,02,28,15,18,4.80
2016,02,28,15,19,1.60
2016,02,28,15,20,1.60
2016,02,28,15,21,1.60
2016,02,28,15,22,3.20
2016,02,28,15,23,3.20
2016,02,28,15,24,3.20
2016,02,28,15,25,3.20
2016,02,28,15,26,3.20
2016,02,28,15,27,3.20
2016,02,28,15,28,4.80
2016,02,28,15,29,4.80
2016,02,28,15,30,3.20
2016,02,28,15,31,3.20
2016,02,28,15,32,4.80
2016,02,28,15,33,3.20
2016,02,28,15,34,3.20
2016,02,28,15,35,4.80
2016,02,28,15,36,4.80
2016,02,28,15,37,8.10
2016,02,28,15,38,8.10
2016,02,28,15,39,8.10
2016,02,28,15,40,6.40
2016,02,28,15,41,6.40
2016,02,28,15,42,4.80
2016,02,28,15,43,4.80
2016,02,28,15,44,4.80
2016,02,28,15,45,6.40
2016,02,28,15,46,6.40
2016,02,28,15,47,6.40
2016,02,28,15,48,6.40
2016,02,28,15,49,4.80
2016,02,28,15,50,4.80
2016,02,28,15,51,3.20
2016,02,28,15,52,3.20
2016,02,28,15,53,6.40
2016,02,28,15,54,4.80
2016,02,28,15,55,3.20
2016,02,28,15,56,3.20
2016,02,28,15,57,4.80
2016,02,28,15,58,4.80
2016,02,28,15,59,3.20
2016,02,28,16,00,4.80
2016,02,28,16,01,4.80
2016,02,28,16,02,4.80
2016,02,28,16,03,3.20
2016,02,28,16,04,4.80
2016,02,28,16,05,4.80
2016,02,28,16,06,6.40
2016,02,28,16,07,3.20
2016,02,28,16,08,3.20
2016,02,28,16,09,3.20
2016,02,28,16,10,4.80
2016,02,28,16,11,4.80
2016,02,28,16,12,4.80
2016,02,28,16,13,3.20
2016,02,28,16,14,3.20
2016,02,28,16,15,1.60
2016,02,28,16,16,3.20
2016,02,28,16,17,4.80
2016,02,28,16,18,6.40
2016,02,28,16,19,4.80
2016,02,28,16,20,4.80
2016,02,28,16,21,1.60
2016,02,28,16,29,3.20
2016,02,28,16,30,4.80
2016,02,28,16,31,3.20
2016,02,28,16,32,4.80
2016,02,28,16,33,6.40
2016,02,28,16,34,3.20
2016,02,28,16,35,3.20
2016,02,28,16,36,4.80
2016,02,28,16,37,3.20
2016,02,28,16,38,1.60
2016,02,28,16,39,1.60
2016,02,28,16,40,1.60
2016,02,28,16,41,3.20
2016,02,28,16,42,3.20
2016,02,28,16,43,1.60
2016,02,28,16,44,1.60
2016,02,28,16,45,1.60
2016,02,28,16,47,1.60
2016,02,28,16,48,1.60
2016,02,28,16,49,4.80
2016,02,28,16,50,4.80
2016,02,28,16,51,4.80
2016,02,28,16,52,3.20
2016,02,28,16,53,3.20
2016,02,28,16,54,3.20
2016,02,28,16,55,1.60
2016,02,28,16,56,3.20
2016,02,28,16,57,3.20
2016,02,28,16,58,1.60
2016,02,28,16,59,1.60
2016,02,28,17,00,3.20
2016,02,28,17,01,3.20
2016,02,28,17,02,1.60
2016,02,28,17,03,1.60
2016,02,28,17,04,3.20
2016,02,28,17,05,1.60
2016,02,28,17,06,4.80
2016,02,28,17,07,4.80
2016,02,28,17,08,4.80
2016,02,28,17,09,3.20
2016,02,28,17,10,4.80
2016,02,28,17,11,3.20
2016,02,28,17,12,3.20
2016,02,28,17,13,3.20
2016,02,28,17,14,3.20
2016,02,28,17,15,1.60
2016,02,28,17,16,1.60
2016,02,28,17,17,1.60
2016,02,28,17,18,1.60
2016,02,28,17,19,4.80
2016,02,28,17,20,4.80
2016,02,28,17,21,3.20
2016,02,28,17,22,4.80
2016,02,28,17,23,3.20
2016,02,28,17,24,1.60
2016,02,28,17,25,1.60
2016,02,28,17,26,3.20
2016,02,28,17,27,3.20
2016,02,28,17,28,3.20
2016,02,28,17,29,1.60
2016,02,28,17,30,3.20
2016,02,28,17,31,3.20
2016,02,28,17,32,1.60
2016,02,28,17,33,1.60
2016,02,28,17,34,3.20
2016,02,28,17,35,4.80
2016,02,28,17,36,4.80
2016,02,28,17,37,4.80
2016,02,28,17,38,3.20
2016,02,28,17,39,3.20
2016,02,28,17,40,4.80
2016,02,28,17,41,4.80
2016,02,28,17,42,4.80
2016,02,28,17,43,3.20
2016,02,28,17,44,3.20